TITAN 3C TRANSTAGE DEB, 43282

Orbit data source: Space-Track

TITAN 3C TRANSTAGE DEB, 43282 is space debris in GEO originally from a launch on Sun, 09 Feb 1969 UTC launched from the Air Force Eastern Test Range (AFETR). Debris objects in space refer to the collection of defunct objects orbiting the Earth. Examples of debris include non-operational satellites, rocket bodies, and fragments generated from explosions, collisions, or faulty payload assembly.

Not visible in the next 10 days
Identifier
43282, 1969-013C
Orbit
GEO
Country
Flag of USUS
Related business
Manufacturer
Martin Marietta
Mission
Spacecraft
Bus & Motor
Unknown
Mass
Unknown
Launch date (UTC)
1969-02-09 (57 years ago)
Launch vehicle
Unknown
Launch site
Air Force Eastern Test Range (AFETR)
Object type
Payload
Rocket body
Debris
Shape & HBR
Unknown
Radar Cross Section
RCS unknown

Expand to show TLE details & history
Last TLE update: 22 hours ago

TLE from 22 hours ago
0 TITAN 3C TRANSTAGE DEB
1 43282U 69013C   25257.97230960 -.00000150  00000-0  00000-0 0  9992
2 43282   1.4957  51.1553 0281830 237.2978 120.7095  0.91409547 25074
Epoch: 2025-09-14T23:20Z
TLE epoch observation values (Epoch: 2025-09-14T23:20:07.549Z)
Latitude
Longitude
67.66864°
Altitude
39,134.619 km
Speed
2.937 km/s
True Right ascension
03h 27m 32s
True Declination
0° 00' 00"
Sunlit
Object was in daylight at epoch
Visualization orbit readout
Latitude
Unknown
Longitude
Unknown
Altitude
Unknown
Speed
Unknown
Apparent Right ascension
Unknown
Apparent Declination
Unknown
Sunlit
N/A
Visualization observer readout
Local Sidereal Time
13:52:24
Azimuth
Unknown
Elevation
Unknown
Doppler factor
Unknown
Orbital elements
Apogee altitude
39,734.611 km
Perigee altitude
37,206.665 km
Semi-major axis
44,848.775 km
Eccentricity
0.02818
Inclination
1.4957°
RAAN
51.1553°
Arg. of periapsis
237.2978°
True anomaly
123.43602°
Mean anomaly
120.7095°
Eccentric anomaly
122.07774°
Mean motion
0.22852 °/min
Orbital period
1,575.38 mins
BSTAR
0
Loading maneuver chart data...
Computing Atmospheric mass density...

Documentation

Showing up to 5 results
|